Hourly Weather Otradnyy

Today, 24 July, Saturday

Time Temperature Precipitation Wind Pressure Humidity
00:00 +18°C° 0 mm 2 mps 744 mmHg 74%
01:00 +17°C° 0 mm 2 mps 744 mmHg 76%
02:00 +17°C° 0 mm 2 mps 744 mmHg 79%
03:00 +17°C° 0 mm 2 mps 744 mmHg 79%
04:00 +17°C° 0 mm 2 mps 744 mmHg 79%
05:00 +17°C° 0 mm 2 mps 744 mmHg 78%
06:00 +18°C° 0 mm 2 mps 745 mmHg 73%
07:00 +20°C° 0 mm 3 mps 745 mmHg 68%
08:00 +21°C° 0 mm 3 mps 745 mmHg 63%
09:00 +22°C° 0 mm 4 mps 745 mmHg 56%
10:00 +23°C° 0 mm 4 mps 745 mmHg 50%
11:00 +25°C° 0 mm 5 mps 746 mmHg 44%
12:00 +25°C° 0 mm 5 mps 746 mmHg 43%
13:00 +25°C° 0 mm 5 mps 746 mmHg 42%
14:00 +25°C° 0 mm 5 mps 746 mmHg 42%
15:00 +23°C° 0 mm 5 mps 747 mmHg 45%
16:00 +23°C° 0 mm 5 mps 747 mmHg 48%
17:00 +22°C° 0 mm 4 mps 747 mmHg 52%
18:00 +20°C° 0 mm 3 mps 748 mmHg 57%
19:00 +19°C° 0 mm 3 mps 748 mmHg 62%
20:00 +17°C° 0 mm 2 mps 748 mmHg 68%
21:00 +16°C° 0 mm 2 mps 749 mmHg 68%
22:00 +16°C° 0 mm 2 mps 749 mmHg 68%
23:00 +15°C° 0 mm 1 mps 749 mmHg 68%

Tomorrow, 25 July, Sunday

Time Temperature Precipitation Wind Pressure Humidity
00:00 +15°C° 0 mm 1 mps 749 mmHg 69%
01:00 +14°C° 0 mm 1 mps 750 mmHg 70%
02:00 +14°C° 0 mm 1 mps 750 mmHg 70%
03:00 +14°C° 0 mm 1 mps 750 mmHg 70%
04:00 +15°C° 0 mm 1 mps 751 mmHg 70%
05:00 +15°C° 0 mm 1 mps 751 mmHg 69%
06:00 +18°C° 0 mm 1 mps 751 mmHg 63%
07:00 +20°C° 0 mm 1 mps 751 mmHg 57%
08:00 +21°C° 0 mm 1 mps 752 mmHg 51%
09:00 +23°C° 0 mm 1 mps 752 mmHg 47%
10:00 +24°C° 0 mm 1 mps 752 mmHg 43%
11:00 +25°C° 0 mm 1 mps 752 mmHg 39%
12:00 +25°C° 0 mm 1 mps 752 mmHg 38%
13:00 +26°C° 0 mm 1 mps 752 mmHg 37%
14:00 +26°C° 0 mm 1 mps 752 mmHg 36%
15:00 +26°C° 0 mm 1 mps 752 mmHg 38%
16:00 +26°C° 0 mm 2 mps 752 mmHg 39%
17:00 +25°C° 0 mm 2 mps 752 mmHg 41%
18:00 +24°C° 0 mm 2 mps 752 mmHg 46%
19:00 +21°C° 0 mm 2 mps 752 mmHg 50%
20:00 +19°C° 0 mm 2 mps 753 mmHg 55%
21:00 +19°C° 0 mm 2 mps 753 mmHg 56%
22:00 +18°C° 0 mm 2 mps 753 mmHg 57%
23:00 +17°C° 0 mm 2 mps 753 mmHg 58%

Day after tomorrow, 26 July, Monday

Time Temperature Precipitation Wind Pressure Humidity
00:00 +17°C° 0 mm 2 mps 753 mmHg 59%
01:00 +16°C° 0 mm 2 mps 753 mmHg 60%
02:00 +16°C° 0 mm 1 mps 753 mmHg 61%
03:00 +16°C° 0 mm 2 mps 754 mmHg 63%
04:00 +16°C° 0 mm 2 mps 754 mmHg 64%
05:00 +16°C° 0 mm 2 mps 754 mmHg 66%
06:00 +18°C° 0 mm 2 mps 754 mmHg 61%
07:00 +20°C° 0 mm 2 mps 754 mmHg 56%
08:00 +23°C° 0 mm 2 mps 754 mmHg 51%
09:00 +24°C° 0 mm 2 mps 754 mmHg 47%
10:00 +25°C° 0 mm 2 mps 754 mmHg 43%
11:00 +26°C° 0 mm 2 mps 754 mmHg 40%
12:00 +27°C° 0 mm 2 mps 754 mmHg 38%
13:00 +27°C° 0 mm 2 mps 754 mmHg 37%
14:00 +28°C° 0 mm 1 mps 754 mmHg 36%
15:00 +27°C° 0 mm 2 mps 753 mmHg 37%
16:00 +27°C° 0 mm 2 mps 753 mmHg 38%
17:00 +27°C° 0 mm 2 mps 753 mmHg 40%
18:00 +25°C° 0 mm 2 mps 753 mmHg 43%
19:00 +23°C° 0 mm 2 mps 753 mmHg 46%
20:00 +20°C° 0 mm 2 mps 753 mmHg 49%
21:00 +20°C° 0 mm 2 mps 753 mmHg 51%
22:00 +19°C° 0 mm 2 mps 754 mmHg 53%
23:00 +18°C° 0 mm 2 mps 754 mmHg 55%

27 July, Tuesday

Time Temperature Precipitation Wind Pressure Humidity
00:00 +18°C° 0 mm 2 mps 754 mmHg 56%
01:00 +17°C° 0 mm 2 mps 754 mmHg 56%
02:00 +17°C° 0 mm 2 mps 753 mmHg 57%
03:00 +17°C° 0 mm 2 mps 754 mmHg 58%
04:00 +17°C° 0 mm 2 mps 754 mmHg 59%
05:00 +17°C° 0 mm 2 mps 754 mmHg 60%
06:00 +19°C° 0 mm 2 mps 754 mmHg 56%
07:00 +21°C° 0 mm 2 mps 754 mmHg 51%
08:00 +24°C° 0 mm 2 mps 754 mmHg 46%
09:00 +25°C° 0 mm 2 mps 753 mmHg 42%
10:00 +27°C° 0 mm 2 mps 753 mmHg 39%
11:00 +28°C° 0 mm 2 mps 753 mmHg 35%
12:00 +28°C° 0 mm 2 mps 753 mmHg 34%
13:00 +29°C° 0 mm 1 mps 753 mmHg 33%
14:00 +29°C° 0 mm 1 mps 752 mmHg 32%
15:00 +29°C° 0 mm 1 mps 752 mmHg 33%
16:00 +29°C° 0 mm 1 mps 752 mmHg 34%
17:00 +29°C° 0 mm 1 mps 752 mmHg 35%
18:00 +27°C° 0 mm 1 mps 752 mmHg 39%
19:00 +25°C° 0 mm 1 mps 751 mmHg 43%
20:00 +23°C° 0 mm 1 mps 751 mmHg 47%
21:00 +22°C° 0 mm 1 mps 751 mmHg 49%
22:00 +21°C° 0 mm 1 mps 751 mmHg 51%
23:00 +21°C° 0 mm 1 mps 751 mmHg 53%

28 July, Wednesday

Time Temperature Precipitation Wind Pressure Humidity
00:00 +20°C° 0 mm 1 mps 751 mmHg 54%
01:00 +18°C° 0 mm 0 mps 751 mmHg 56%
02:00 +17°C° 0 mm 0 mps 751 mmHg 58%
03:00 +18°C° 0 mm 0 mps 751 mmHg 59%
04:00 +20°C° 0 mm 1 mps 751 mmHg 60%
05:00 +20°C° 0 mm 1 mps 751 mmHg 62%
06:00 +22°C° 0 mm 1 mps 750 mmHg 56%
07:00 +24°C° 0 mm 1 mps 750 mmHg 50%
08:00 +26°C° 0 mm 1 mps 750 mmHg 45%
09:00 +27°C° 0 mm 1 mps 750 mmHg 41%
10:00 +28°C° 0 mm 2 mps 750 mmHg 37%
11:00 +30°C° 0 mm 2 mps 749 mmHg 34%
12:00 +30°C° 0 mm 2 mps 749 mmHg 33%
13:00 +30°C° 0 mm 2 mps 748 mmHg 32%
14:00 +31°C° 0 mm 2 mps 748 mmHg 32%
15:00 +30°C° 0 mm 3 mps 748 mmHg 39%
16:00 +28°C° 0 mm 4 mps 748 mmHg 46%
17:00 +27°C° 0 mm 5 mps 747 mmHg 53%
18:00 +25°C° 0 mm 4 mps 748 mmHg 60%
19:00 +22°C° 0 mm 3 mps 748 mmHg 67%
20:00 +20°C° 0 mm 2 mps 748 mmHg 74%
21:00 +20°C° 0.1 mm 2 mps 747 mmHg 76%
22:00 +20°C° 0.1 mm 2 mps 747 mmHg 78%
23:00 +21°C° 0.1 mm 1 mps 746 mmHg 79%

29 July, Thursday

Time Temperature Precipitation Wind Pressure Humidity
00:00 +19°C° 0.4 mm 2 mps 746 mmHg 83%
01:00 +19°C° 0.4 mm 2 mps 746 mmHg 86%
02:00 +19°C° 0.4 mm 3 mps 746 mmHg 90%
03:00 +19°C° 0.3 mm 3 mps 745 mmHg 90%
04:00 +19°C° 0.3 mm 3 mps 745 mmHg 91%
05:00 +19°C° 0.3 mm 3 mps 744 mmHg 91%
06:00 +20°C° 0 mm 3 mps 744 mmHg 86%
07:00 +21°C° 0 mm 3 mps 744 mmHg 82%
08:00 +22°C° 0 mm 4 mps 744 mmHg 77%
09:00 +25°C° 0 mm 3 mps 743 mmHg 70%
10:00 +26°C° 0 mm 3 mps 743 mmHg 63%
11:00 +28°C° 0 mm 3 mps 743 mmHg 56%
12:00 +28°C° 0.1 mm 4 mps 743 mmHg 55%
13:00 +28°C° 0.1 mm 4 mps 743 mmHg 55%
14:00 +29°C° 0.1 mm 5 mps 743 mmHg 54%
15:00 +28°C° 0 mm 5 mps 743 mmHg 55%
16:00 +28°C° 0 mm 5 mps 743 mmHg 55%
17:00 +28°C° 0 mm 4 mps 743 mmHg 56%
18:00 +26°C° 0 mm 3 mps 743 mmHg 60%
19:00 +25°C° 0 mm 2 mps 743 mmHg 64%
20:00 +23°C° 0 mm 1 mps 743 mmHg 68%
21:00 +23°C° 0 mm 2 mps 743 mmHg 70%
22:00 +21°C° 0 mm 2 mps 743 mmHg 71%
23:00 +21°C° 0 mm 2 mps 743 mmHg 73%
Show more